Location: Austin
(30.3000°N, 97.7500°W)
Time: 00:02:07
(UTC-05:00)

MOS 1 Rocket - Pass Details

Date: 11 June 2024
Orbit: 611 x 821 km, 97.5° (Epoch: 21 June)

Event Time Altitude Azimuth Distance (km) Brightness Sun altitude
Exits shadow 22:54:54 61° 103° (ESE) 924 3.6 -24.7°
Maximum altitude 22:55:21 64° 76° (ENE) 905 3.6 -24.8°
Drops below altitude 10° 23:00:40 10° 356° (N) 2,413 6.8 -25.5°
Sets 23:03:02 0° 353° (N) 3,337 7.7 -25.8°
